GW6532 Weather Reports


Display with metric or nautical units.
time (UTC)temp
F
wind
direction
speed
MPH
gust
MPH
rain 1hr
in
rain 24hr
in
rain mn
in
humidity
%
barometer
mb
20260510212824 74 147 1.0 3.0 0.00 0.00 0.00 39 1018.3
20260510212321 75 27 1.0 2.0 0.00 0.00 0.00 42 1018.2
20260510211818 74 148 1.0 3.0 0.00 0.00 0.00 39 1018.3
20260510211313 75 23 1.0 4.0 0.00 0.00 0.00 37 1018.2
20260510210809 74 9 2.0 5.0 0.00 0.00 0.00 40 1018.1
20260510210304 75 39 3.0 6.0 0.00 0.00 0.00 37 1018.2
20260510205803 75 359 3.0 5.0 0.00 0.00 0.00 38 1018.3
20260510205259 76 350 5.0 7.0 0.00 0.00 0.00 37 1018.2
20260510204755 75 8 3.0 4.0 0.00 0.00 0.00 37 1018.2
20260510204252 77 347 4.0 6.0 0.00 0.00 0.00 37 1018.3
20260510203749 77 24 2.0 3.0 0.00 0.00 0.00 37 1018.3
20260510203247 76 354 2.0 5.0 0.00 0.00 0.00 35 1018.2
20260510202746 76 358 1.0 4.0 0.00 0.00 0.00 42 1018.3
20260510202242 76 44 3.0 4.0 0.00 0.00 0.00 40 1018.2
20260510201740 76 10 3.0 5.0 0.00 0.00 0.00 37 1018.3
20260510201236 75 251 1.0 4.0 0.00 0.00 0.00 39 1018.4
20260510200733 76 39 2.0 4.0 0.00 0.00 0.00 39 1018.4
20260510200230 75 31 5.0 5.0 0.00 0.00 0.00 37 1018.4
20260510195727 75 341 0.0 4.0 0.00 0.00 0.00 42 1018.4
20260510195224 75 105 1.0 3.0 0.00 0.00 0.00 40 1018.5
20260510194723 75 43 2.0 4.0 0.00 0.00 0.00 38 1018.7
20260510194220 75 10 2.0 4.0 0.00 0.00 0.00 37 1018.8
20260510193715 76 318 3.0 4.0 0.00 0.00 0.00 38 1018.6
20260510193210 76 6 3.0 6.0 0.00 0.00 0.00 38 1018.6
20260510192706 76 1 5.0 5.0 0.00 0.00 0.00 41 1018.5
20260510192201 75 25 4.0 5.0 0.00 0.00 0.00 39 1018.7
20260510191658 75 29 3.0 6.0 0.00 0.00 0.00 41 1018.8
20260510191155 74 25 0.0 4.0 0.00 0.00 0.00 43 1018.5
20260510190652 75 47 3.0 4.0 0.00 0.00 0.00 42 1018.5
20260510190149 74 38 2.0 3.0 0.00 0.00 0.00 40 1018.4
20260510185646 74 14 3.0 6.0 0.00 0.00 0.00 42 1018.8
20260510185144 74 343 2.0 4.0 0.00 0.00 0.00 44 1018.4
20260510184640 73 18 3.0 5.0 0.00 0.00 0.00 42 1018.4
20260510184136 73 338 4.0 6.0 0.00 0.00 0.00 43 1018.5
20260510183631 73 89 2.0 5.0 0.00 0.00 0.00 45 1018.6
20260510183127 73 9 1.0 4.0 0.00 0.00 0.00 41 1018.4
20260510182624 73 44 2.0 4.0 0.00 0.00 0.00 45 1018.4
20260510182119 74 23 3.0 4.0 0.00 0.00 0.00 44 1018.3
20260510181617 75 44 1.0 6.0 0.00 0.00 0.00 46 1018.2
20260510181113 74 339 0.0 4.0 0.00 0.00 0.00 47 1018.3
20260510180609 74 359 4.0 6.0 0.00 0.00 0.00 49 1018.2
20260510180107 75 62 3.0 6.0 0.00 0.00 0.00 51 1018.1
20260510175603 74 45 3.0 5.0 0.00 0.00 0.00 54 1018.1
20260510175058 74 11 2.0 5.0 0.00 0.00 0.00 55 1018.0
20260510174557 74 357 3.0 4.0 0.00 0.00 0.00 54 1018.1
20260510174053 75 331 4.0 6.0 0.00 0.00 0.00 55 1018.1
20260510173549 74 353 9.0 9.0 0.00 0.00 0.00 57 1018.0
20260510173046 74 17 3.0 6.0 0.00 0.00 0.00 56 1018.2
20260510172542 74 41 2.0 5.0 0.00 0.00 0.00 55 1018.2
20260510172038 73 13 4.0 7.0 0.00 0.00 0.00 55 1018.3
20260510171535 73 4 1.0 4.0 0.00 0.00 0.00 54 1018.4
20260510171032 73 11 2.0 5.0 0.00 0.00 0.00 56 1018.4
20260510170528 74 5 3.0 5.0 0.00 0.00 0.00 56 1018.6
20260510170025 74 81 2.0 4.0 0.00 0.00 0.00 54 1018.5
20260510165520 75 10 4.0 8.0 0.00 0.00 0.00 52 1018.2
20260510165017 77 61 4.0 7.0 0.00 0.00 0.00 52 1018.1
20260510164514 76 349 4.0 7.0 0.00 0.00 0.00 54 1018.3
20260510164010 77 23 2.0 5.0 0.00 0.00 0.00 53 1018.2
20260510163506 77 3 2.0 5.0 0.00 0.00 0.00 51 1018.3
20260510163002 76 39 3.0 5.0 0.00 0.00 0.00 56 1018.3
20260510162458 74 5 3.0 4.0 0.00 0.00 0.00 57 1018.5
20260510161954 75 31 3.0 4.0 0.00 0.00 0.00 54 1018.3
20260510161450 75 30 4.0 4.0 0.00 0.00 0.00 53 1018.2
20260510160948 73 110 2.0 6.0 0.00 0.00 0.00 54 1018.2
20260510160445 74 354 4.0 9.0 0.00 0.00 0.00 55 1018.1
20260510155943 74 23 2.0 5.0 0.00 0.00 0.00 54 1017.9
20260510155440 74 24 2.0 3.0 0.00 0.00 0.00 54 1018.0
20260510154937 73 1 2.0 4.0 0.00 0.00 0.00 57 1017.8
20260510154433 73 334 2.0 3.0 0.00 0.00 0.00 57 1017.9
20260510153931 73 3 4.0 6.0 0.00 0.00 0.00 58 1017.8
20260510153428 73 357 4.0 6.0 0.00 0.00 0.00 58 1017.8
20260510152925 73 7 4.0 4.0 0.00 0.00 0.00 56 1017.7
20260510152423 73 88 2.0 4.0 0.00 0.00 0.00 58 1017.5
20260510151919 74 11 3.0 5.0 0.00 0.00 0.00 59 1017.4
20260510151416 73 87 0.0 2.0 0.00 0.00 0.00 57 1017.6
20260510150912 73 8 2.0 4.0 0.00 0.00 0.00 59 1017.3
20260510150408 72 31 2.0 6.0 0.00 0.00 0.00 58 1017.4
20260510145904 73 190 2.0 4.0 0.00 0.00 0.00 56 1017.3
20260510145401 72 144 0.0 5.0 0.00 0.00 0.00 57 1017.5
20260510144858 72 39 3.0 4.0 0.00 0.00 0.00 57 1017.5
20260510144355 70 329 3.0 6.0 0.00 0.00 0.00 59 1017.5
20260510143854 71 351 5.0 5.0 0.00 0.00 0.00 58 1017.5
20260510143351 71 347 4.0 8.0 0.00 0.00 0.00 58 1017.4
20260510142848 71 333 3.0 5.0 0.00 0.00 0.00 59 1017.3
20260510142344 71 320 2.0 4.0 0.00 0.00 0.00 60 1017.5
20260510141841 71 354 3.0 4.0 0.00 0.00 0.00 59 1017.4
20260510141339 69 337 4.0 4.0 0.00 0.00 0.00 61 1017.4
20260510140836 69 9 2.0 5.0 0.00 0.00 0.00 60 1017.3
20260510140332 70 75 0.0 4.0 0.00 0.00 0.00 59 1017.2
20260510135825 69 9 2.0 3.0 0.00 0.00 0.00 60 1017.0
20260510135321 68 18 4.0 4.0 0.00 0.00 0.00 61 1017.0
20260510134819 69 3 2.0 2.0 0.00 0.00 0.00 60 1016.8
20260510134316 68 351 3.0 4.0 0.00 0.00 0.00 62 1016.8
20260510133811 68 18 0.0 2.0 0.00 0.00 0.00 60 1016.8
20260510133308 67 336 2.0 2.0 0.00 0.00 0.00 62 1016.7
20260510132803 66 334 0.0 2.0 0.00 0.00 0.00 66 1016.8
20260510132305 64 173 0.0 2.0 0.00 0.00 0.00 67 1016.9
20260510131758 64 346 0.0 4.0 0.00 0.00 0.00 67 1016.9
20260510131256 65 9 1.0 2.0 0.00 0.00 0.00 65 1017.2
20260510130752 64 353 2.0 2.0 0.00 0.00 0.00 67 1016.8
20260510130249 64 20 1.0 2.0 0.00 0.00 0.00 67 1016.6
20260510125746 64 89 2.0 2.0 0.00 0.00 0.00 67 1016.7
20260510125242 63 22 0.0 3.0 0.00 0.00 0.00 69 1016.6
20260510124738 63 9 3.0 3.0 0.00 0.00 0.00 68 1016.5
20260510124236 62 357 2.0 6.0 0.00 0.00 0.00 69 1016.6
20260510123731 63 8 5.0 5.0 0.00 0.00 0.00 66 1016.4
20260510123228 63 332 1.0 2.0 0.00 0.00 0.00 66 1016.2
20260510122724 63 299 2.0 3.0 0.00 0.00 0.00 65 1016.0
20260510122220 63 298 2.0 3.0 0.00 0.00 0.00 64 1016.0
20260510121717 63 285 3.0 3.0 0.00 0.00 0.00 64 1015.9
20260510121215 63 263 0.0 2.0 0.00 0.00 0.00 64 1015.9
20260510120711 63 277 0.0 2.0 0.00 0.00 0.00 65 1015.7
20260510120208 63 317 0.0 2.0 0.00 0.00 0.00 65 1015.6
20260510115703 62 287 0.0 3.0 0.00 0.00 0.00 64 1015.5
20260510115202 62 289 0.0 2.0 0.00 0.00 0.00 65 1015.4
20260510114657 61 312 2.0 2.0 0.00 0.00 0.00 66 1015.3
20260510114154 61 309 1.0 2.0 0.00 0.00 0.00 66 1015.1
20260510113649 60 292 2.0 4.0 0.00 0.00 0.00 66 1015.1
20260510113146 60 285 2.0 3.0 0.00 0.00 0.00 68 1014.9
20260510112643 59 180 1.0 3.0 0.00 0.00 0.00 68 1014.8
20260510112140 59 313 0.0 2.0 0.00 0.00 0.00 68 1014.8
20260510111636 59 293 2.0 2.0 0.00 0.00 0.00 68 1015.0
20260510111132 59 302 2.0 3.0 0.00 0.00 0.00 68 1014.8
20260510110627 59 271 2.0 2.0 0.00 0.00 0.00 67 1014.9
20260510110125 59 189 1.0 2.0 0.00 0.00 0.00 67 1014.7
20260510105620 59 300 0.0 1.0 0.00 0.00 0.00 67 1014.6
20260510105115 60 318 1.0 2.0 0.00 0.00 0.00 66 1014.6
20260510104612 60 262 1.0 2.0 0.00 0.00 0.00 66 1014.5
20260510104109 60 288 2.0 2.0 0.00 0.00 0.00 66 1014.5
20260510103606 60 300 1.0 2.0 0.00 0.00 0.00 68 1014.3
20260510103101 60 193 0.0 1.0 0.00 0.00 0.00 67 1014.2
20260510102557 60 297 1.0 1.0 0.00 0.00 0.00 68 1014.4
20260510102053 60 261 0.0 1.0 0.00 0.00 0.00 67 1014.4
20260510101551 60 300 0.0 2.0 0.00 0.00 0.00 66 1014.5
20260510101050 60 166 0.0 1.0 0.00 0.00 0.00 66 1014.3
20260510100545 60 277 0.0 1.0 0.00 0.00 0.00 66 1014.4
20260510100043 60 303 1.0 2.0 0.00 0.00 0.00 66 1014.4
20260510095539 60 296 1.0 1.0 0.00 0.00 0.00 66 1014.6
20260510095038 60 328 0.0 1.0 0.00 0.00 0.00 65 1014.3
20260510094533 61 297 1.0 2.0 0.00 0.00 0.00 65 1014.4
20260510094028 60 303 0.0 2.0 0.00 0.00 0.00 66 1014.4
20260510093524 60 290 2.0 2.0 0.00 0.00 0.00 66 1014.2
20260510093021 60 264 2.0 2.0 0.00 0.00 0.00 67 1014.3
20260510092518 60 290 1.0 2.0 0.00 0.00 0.00 66 1014.3
20260510092018 60 264 0.0 2.0 0.00 0.00 0.00 67 1014.2
20260510091515 60 144 0.0 2.0 0.00 0.00 0.00 68 1014.2
20260510091011 60 313 1.0 2.0 0.00 0.00 0.00 67 1014.4
20260510090508 59 277 0.0 2.0 0.00 0.00 0.00 69 1014.2
20260510090004 59 243 0.0 1.0 0.00 0.00 0.00 69 1014.2
20260510085459 59 217 0.0 1.0 0.00 0.00 0.00 69 1014.2
20260510084955 59 205 0.0 2.0 0.00 0.00 0.00 68 1014.1
20260510084452 60 212 1.0 2.0 0.00 0.00 0.00 67 1014.3
20260510083948 60 168 2.0 2.0 0.00 0.00 0.00 66 1014.3
20260510083445 59 175 2.0 2.0 0.00 0.00 0.00 67 1014.5
20260510082940 60 180 2.0 4.0 0.00 0.00 0.00 69 1014.6
20260510082438 61 16 0.0 2.0 0.00 0.00 0.00 64 1014.4
20260510081937 61 271 2.0 5.0 0.00 0.00 0.00 64 1014.4
20260510081433 60 277 1.0 4.0 0.00 0.00 0.00 66 1013.9
20260510080930 59 358 6.0 8.0 0.00 0.00 0.00 70 1014.3
20260510080428 58 20 0.0 0.0 0.00 0.00 0.00 73 1013.5
20260510075926 59 340 0.0 0.0 0.00 0.00 0.00 69 1013.4
20260510075424 59 340 0.0 0.0 0.00 0.00 0.00 67 1013.2
20260510074920 59 331 1.0 1.0 0.00 0.00 0.00 67 1013.0
20260510074417 59 272 1.0 1.0 0.00 0.00 0.00 67 1013.0
20260510073914 59 260 1.0 1.0 0.00 0.00 0.00 67 1013.1
20260510073409 60 266 0.0 1.0 0.00 0.00 0.00 66 1013.0
20260510072906 59 284 0.0 1.0 0.00 0.00 0.00 66 1013.0
20260510072403 59 255 0.0 0.0 0.00 0.00 0.00 66 1013.0
20260510071858 59 353 0.0 0.0 0.00 0.00 0.00 66 1013.0
20260510071355 60 353 0.0 1.0 0.00 0.00 0.00 66 1013.1
20260510070853 60 280 0.0 0.0 0.00 0.00 0.00 64 1013.0
20260510070350 61 280 0.0 0.0 0.00 0.00 0.00 62 1013.1
20260510065850 62 280 0.0 1.0 0.00 0.00 0.00 62 1013.4
20260510065347 62 294 0.0 2.0 0.00 0.00 0.00 61 1013.1
20260510064844 63 318 1.0 2.0 0.00 0.00 0.00 60 1013.3
20260510064342 63 308 0.0 3.0 0.00 0.00 0.00 59 1013.0
20260510063838 63 274 2.0 2.0 0.00 0.00 0.00 60 1013.1
20260510063334 63 283 2.0 2.0 0.00 0.00 0.00 59 1013.1
20260510062831 63 259 0.0 2.0 0.00 0.00 0.00 59 1013.0
20260510062326 63 266 0.0 1.0 0.00 0.00 0.00 60 1012.7
20260510061822 64 300 0.0 2.0 0.00 0.00 0.00 58 1012.9
20260510061319 64 277 2.0 2.0 0.00 0.00 0.00 57 1012.8
20260510060815 64 297 2.0 2.0 0.00 0.00 0.00 58 1012.8
20260510060313 64 289 1.0 2.0 0.00 0.00 0.00 59 1012.9
20260510055809 63 284 1.0 2.0 0.00 0.00 0.00 59 1012.8
20260510055308 63 222 0.0 1.0 0.00 0.00 0.00 59 1012.8
20260510054807 63 266 0.0 1.0 0.00 0.00 0.00 59 1012.8
20260510054303 64 288 0.0 2.0 0.00 0.00 0.00 58 1012.8
20260510053758 63 239 1.0 2.0 0.00 0.00 0.00 59 1012.7
20260510053254 63 290 0.0 0.0 0.00 0.00 0.00 61 1012.9
20260510052750 63 261 0.0 0.0 0.00 0.00 0.00 60 1012.8
20260510052246 64 266 0.0 0.0 0.00 0.00 0.00 59 1012.9
20260510051742 64 290 1.0 2.0 0.00 0.00 0.00 58 1012.8
20260510051239 64 295 2.0 2.0 0.00 0.00 0.00 57 1012.9
20260510050736 64 266 0.0 2.0 0.00 0.00 0.00 58 1012.9
20260510050233 63 298 1.0 2.0 0.00 0.00 0.00 59 1012.8
20260510045729 63 261 0.0 1.0 0.00 0.07 0.07 61 1012.6
20260510045226 63 283 0.0 1.0 0.00 0.07 0.07 60 1012.7
20260510044722 63 292 0.0 2.0 0.00 0.07 0.07 60 1012.6
20260510044221 63 292 1.0 1.0 0.00 0.07 0.07 60 1012.7
20260510043715 64 315 2.0 2.0 0.00 0.07 0.07 59 1012.9
20260510043213 64 297 1.0 2.0 0.00 0.07 0.07 58 1012.6
20260510042710 64 290 2.0 2.0 0.00 0.07 0.07 58 1012.6
20260510042206 64 280 1.0 2.0 0.00 0.07 0.07 58 1012.7
20260510041703 64 297 1.0 1.0 0.00 0.07 0.07 59 1012.7
20260510041200 64 275 1.0 2.0 0.00 0.07 0.07 58 1012.7
20260510040657 64 295 1.0 2.0 0.00 0.07 0.07 58 1012.6
20260510040154 64 279 1.0 2.0 0.00 0.07 0.07 57 1012.5
20260510035649 64 296 1.0 2.0 0.00 0.07 0.07 58 1012.7
20260510035145 64 297 1.0 2.0 0.00 0.07 0.07 58 1012.6
20260510034642 64 300 0.0 2.0 0.00 0.07 0.07 57 1012.5
20260510034139 65 300 0.0 2.0 0.00 0.07 0.07 56 1012.6
20260510033635 65 284 0.0 2.0 0.00 0.07 0.07 57 1012.6
20260510033133 65 292 0.0 2.0 0.00 0.07 0.07 56 1012.6
20260510032629 65 265 1.0 2.0 0.00 0.07 0.07 56 1012.5
20260510032124 65 285 2.0 2.0 0.00 0.07 0.07 56 1012.6
20260510031619 65 264 0.0 1.0 0.00 0.07 0.07 56 1012.4
20260510031117 65 282 0.0 1.0 0.00 0.07 0.07 55 1012.5
20260510030611 66 300 0.0 1.0 0.00 0.07 0.07 55 1012.5
20260510030109 66 300 0.0 2.0 0.00 0.07 0.07 56 1012.3
20260510025606 66 297 1.0 2.0 0.00 0.07 0.07 55 1012.3
20260510025103 66 281 0.0 2.0 0.00 0.07 0.07 55 1012.3
20260510024600 66 300 1.0 2.0 0.00 0.07 0.07 54 1012.4
20260510024056 66 283 1.0 2.0 0.00 0.07 0.07 54 1012.2
20260510023552 66 271 0.0 1.0 0.00 0.07 0.07 54 1012.3
20260510023050 66 276 0.0 1.0 0.00 0.07 0.07 55 1012.0
20260510022550 66 290 0.0 2.0 0.00 0.07 0.07 56 1012.0
20260510022049 66 274 0.0 1.0 0.00 0.07 0.07 55 1012.3
20260510021546 66 294 0.0 2.0 0.00 0.07 0.07 56 1012.1
20260510021044 65 277 0.0 0.0 0.00 0.07 0.07 59 1011.9
20260510020538 65 266 0.0 0.0 0.00 0.07 0.07 59 1012.1
20260510020034 65 261 0.0 0.0 0.00 0.07 0.07 58 1012.0
20260510015530 65 261 0.0 1.0 0.00 0.07 0.07 58 1011.8
20260510015026 66 260 0.0 1.0 0.00 0.07 0.07 57 1011.8
20260510014522 65 287 0.0 0.0 0.00 0.07 0.07 56 1011.8
20260510014020 66 278 0.0 0.0 0.00 0.07 0.07 55 1011.7
20260510013514 66 300 0.0 0.0 0.00 0.07 0.07 54 1011.7
20260510013010 66 300 0.0 0.0 0.00 0.07 0.07 56 1011.7
20260510012505 67 217 0.0 0.0 0.00 0.07 0.07 55 1011.4
20260510012000 68 266 0.0 1.0 0.00 0.07 0.07 53 1011.5
20260510011455 68 269 0.0 1.0 0.00 0.07 0.07 54 1011.3
20260510010951 68 317 0.0 1.0 0.00 0.07 0.07 52 1011.4
20260510010449 69 300 0.0 1.0 0.00 0.07 0.07 53 1011.1
20260510005945 69 275 0.0 1.0 0.00 0.07 0.07 51 1011.4
20260510005441 69 261 0.0 0.0 0.00 0.07 0.07 49 1011.2
20260510004939 70 261 0.0 1.0 0.00 0.07 0.07 47 1011.1
20260510004436 71 300 0.0 0.0 0.00 0.07 0.07 46 1011.1
20260510003934 71 340 0.0 0.0 0.00 0.07 0.07 45 1010.8
20260510003431 72 340 0.0 0.0 0.00 0.07 0.07 43 1010.6
20260510002930 73 306 0.0 0.0 0.00 0.07 0.07 43 1010.7
20260510002427 74 328 0.0 0.0 0.00 0.07 0.07 41 1010.6
20260510001923 75 294 0.0 1.0 0.00 0.07 0.07 39 1010.6
20260510001421 76 255 0.0 0.0 0.00 0.07 0.07 37 1010.7
20260510000918 77 268 0.0 1.0 0.00 0.07 0.07 36 1010.5
20260510000415 77 248 0.0 2.0 0.00 0.07 0.07 36 1010.5
20260509235911 78 277 0.0 2.0 0.00 0.07 0.07 34 1010.5
20260509235408 78 243 0.0 4.0 0.00 0.07 0.07 32 1010.5
20260509234904 79 239 1.0 2.0 0.00 0.07 0.07 31 1010.5
20260509234401 80 303 2.0 3.0 0.00 0.07 0.07 31 1010.5
20260509233859 82 277 2.0 3.0 0.00 0.07 0.07 29 1010.6
20260509233357 85 280 3.0 3.0 0.00 0.07 0.07 25 1010.6
20260509232852 85 264 1.0 2.0 0.00 0.07 0.07 27 1010.6
20260509232350 84 305 2.0 3.0 0.00 0.07 0.07 26 1010.3
20260509231846 84 303 2.0 3.0 0.00 0.07 0.07 26 1010.5
20260509231343 84 307 2.0 4.0 0.00 0.07 0.07 25 1010.4
20260509230841 86 306 3.0 3.0 0.00 0.07 0.07 24 1010.4
20260509230337 84 310 1.0 3.0 0.00 0.07 0.07 27 1010.7
20260509225833 84 302 1.0 2.0 0.00 0.07 0.07 28 1010.5
20260509225330 84 297 5.0 7.0 0.00 0.07 0.07 26 1010.5
20260509224826 83 285 2.0 7.0 0.00 0.07 0.07 26 1010.5
20260509224322 84 277 3.0 4.0 0.00 0.07 0.07 25 1010.5
20260509223819 85 329 4.0 8.0 0.00 0.07 0.07 27 1010.6
20260509223316 85 328 2.0 3.0 0.00 0.07 0.07 28 1010.4
20260509222813 84 281 5.0 5.0 0.00 0.07 0.07 26 1010.5
20260509222308 84 280 3.0 4.0 0.00 0.07 0.07 26 1010.5
20260509221804 84 267 1.0 4.0 0.00 0.07 0.07 31 1010.4
20260509221301 85 294 3.0 6.0 0.00 0.07 0.07 27 1010.6
20260509220756 85 326 1.0 3.0 0.00 0.07 0.07 29 1010.5
20260509220253 86 313 2.0 5.0 0.00 0.07 0.07 27 1010.4
20260509215748 87 272 3.0 5.0 0.00 0.07 0.07 25 1010.3
20260509215245 85 310 0.0 4.0 0.00 0.07 0.07 24 1010.3
20260509214742 84 257 4.0 5.0 0.00 0.07 0.07 21 1010.3
20260509214239 84 296 3.0 5.0 0.00 0.07 0.07 24 1010.4
20260509213736 84 293 4.0 6.0 0.00 0.07 0.07 26 1010.3
20260509213232 84 297 3.0 5.0 0.00 0.07 0.07 29 1010.5